User: anonymous   Login
Location: Unspecified
(0.0000°N, 0.0000°E)
Time: 13:18:50
(UTC+00:00)
Language:

SICH 2 - Orbit

View from above orbital plane
View from above orbital plane
View from above satellite
View from above satellite

Ground track
Ground track

The orbit data is extracted from the following two-line orbital elements,

1 37794U 11044G   21015.80693366  .00000056  00000-0  20182-4 0  9998
2 37794  97.9126  70.8189 0011795 318.3950 168.8926 14.61940586502136
Epoch (UTC): 15 January 2021 19:21:59
Eccentricity: 0.0011795
inclination: 97.9126°
perigee height: 678 km
apogee height: 695 km
right ascension of ascending node: 70.8189°
argument of perigee: 318.3950°
revolutions per day: 14.61940586
mean anomaly at epoch: 168.8926°
orbit number at epoch: 50213

The dashed part of the orbit path shows where the satellite is in the earth's shadow,  

DLR